Location: Czekanka
(50.4925°N, 19.2643°E)
Time: 15:22:48
(UTC+00:00)

SL-16 R/B - Pass Details

Date: 20 September 2024
Orbit: 842 x 846 km, 71.0° (Epoch: 07 October)

Event Time Altitude Azimuth Distance (km) Brightness Sun altitude
Rises 02:08:01 0° 332° (NNW) 3,413 5.4 -21.8°
Reaches altitude 10° 02:10:45 10° 343° (NNW) 2,474 4.8 -21.4°
Maximum altitude 02:15:49 32° 46° (NE) 1,415 4.0 -20.7°
Drops below altitude 10° 02:20:50 10° 109° (ESE) 2,461 5.2 -20.0°
Sets 02:23:32 0° 119° (ESE) 3,393 5.8 -19.6°
